When you browse on this site, cookies collect data to enhance your experience and personalize the content and advertising you see.
Visit our Privacy Policy to learn more. By continuing to use the site, you agree to this use of cookies and data.
  • In Austria
  • List of Countries
  • For 7 days
  • Water Temperature
  • Weather Map
  • News
  • Weather Widgets
  • user-avatar
    Login

    Hourly Weather Guarda

    Today, 19 September, Thursday

    Time Temperature Precipitation Wind Pressure Humidity
    00:00 +16°C° 0 mm 1 mps 688 mmHg 82%
    01:00 +16°C° 0 mm 1 mps 688 mmHg 82%
    02:00 +15°C° 0 mm 0 mps 688 mmHg 82%
    03:00 +15°C° 0 mm 0 mps 688 mmHg 83%
    04:00 +14°C° 0 mm 0 mps 688 mmHg 83%
    05:00 +15°C° 0 mm 1 mps 688 mmHg 82%
    06:00 +15°C° 0 mm 1 mps 688 mmHg 82%
    07:00 +18°C° 0 mm 1 mps 689 mmHg 72%
    08:00 +21°C° 0 mm 1 mps 690 mmHg 62%
    09:00 +23°C° 0 mm 1 mps 690 mmHg 51%
    10:00 +25°C° 0 mm 1 mps 690 mmHg 45%
    11:00 +26°C° 0 mm 1 mps 690 mmHg 38%
    12:00 +28°C° 0 mm 2 mps 690 mmHg 32%
    13:00 +28°C° 0 mm 2 mps 690 mmHg 31%
    14:00 +28°C° 0 mm 2 mps 690 mmHg 30%
    15:00 +28°C° 0 mm 3 mps 689 mmHg 28%
    16:00 +27°C° 0 mm 3 mps 689 mmHg 34%
    17:00 +25°C° 0 mm 3 mps 688 mmHg 41%
    18:00 +24°C° 0 mm 3 mps 688 mmHg 47%
    19:00 +21°C° 0 mm 2 mps 688 mmHg 55%
    20:00 +19°C° 0 mm 2 mps 688 mmHg 63%
    21:00 +18°C° 0 mm 1 mps 688 mmHg 72%
    22:00 +18°C° 0 mm 1 mps 687 mmHg 76%
    23:00 +16°C° 0 mm 1 mps 687 mmHg 80%

    Tomorrow, 20 September, Friday

    Time Temperature Precipitation Wind Pressure Humidity
    00:00 +15°C° 0 mm 1 mps 687 mmHg 84%
    01:00 +14°C° 0 mm 0 mps 686 mmHg 81%
    02:00 +14°C° 0 mm 0 mps 686 mmHg 79%
    03:00 +14°C° 0 mm 0 mps 686 mmHg 77%
    04:00 +14°C° 0 mm 0 mps 686 mmHg 76%
    05:00 +14°C° 0 mm 0 mps 686 mmHg 75%
    06:00 +14°C° 0 mm 0 mps 686 mmHg 74%
    07:00 +18°C° 0 mm 1 mps 686 mmHg 66%
    08:00 +20°C° 0 mm 1 mps 687 mmHg 58%
    09:00 +22°C° 0 mm 1 mps 688 mmHg 50%
    10:00 +22°C° 0 mm 3 mps 688 mmHg 45%
    11:00 +23°C° 0 mm 4 mps 688 mmHg 40%
    12:00 +26°C° 0 mm 5 mps 688 mmHg 35%
    13:00 +25°C° 0 mm 5 mps 687 mmHg 35%
    14:00 +25°C° 0 mm 5 mps 687 mmHg 35%
    15:00 +24°C° 0 mm 6 mps 686 mmHg 35%
    16:00 +22°C° 0 mm 5 mps 686 mmHg 40%
    17:00 +21°C° 0 mm 4 mps 685 mmHg 45%
    18:00 +19°C° 0 mm 3 mps 685 mmHg 50%
    19:00 +18°C° 0 mm 2 mps 685 mmHg 55%
    20:00 +17°C° 0 mm 2 mps 685 mmHg 59%
    21:00 +16°C° 0 mm 1 mps 685 mmHg 64%
    22:00 +15°C° 0 mm 1 mps 685 mmHg 67%
    23:00 +14°C° 0 mm 1 mps 684 mmHg 70%

    Day after tomorrow, 21 September, Saturday

    Time Temperature Precipitation Wind Pressure Humidity
    00:00 +14°C° 0 mm 1 mps 684 mmHg 74%
    01:00 +14°C° 0 mm 1 mps 684 mmHg 77%
    02:00 +14°C° 0 mm 2 mps 683 mmHg 81%
    03:00 +13°C° 0 mm 2 mps 683 mmHg 84%
    04:00 +14°C° 0.1 mm 2 mps 683 mmHg 86%
    05:00 +13°C° 0.1 mm 3 mps 683 mmHg 88%
    06:00 +14°C° 0.1 mm 4 mps 683 mmHg 90%
    07:00 +14°C° 0.3 mm 4 mps 683 mmHg 90%
    08:00 +14°C° 0.3 mm 4 mps 683 mmHg 90%
    09:00 +14°C° 0.3 mm 5 mps 683 mmHg 90%
    10:00 +14°C° 1.5 mm 5 mps 683 mmHg 90%
    11:00 +14°C° 1.5 mm 5 mps 683 mmHg 91%
    12:00 +14°C° 1.5 mm 5 mps 683 mmHg 91%
    13:00 +14°C° 1.4 mm 5 mps 683 mmHg 91%
    14:00 +15°C° 1.4 mm 5 mps 683 mmHg 92%
    15:00 +15°C° 1.4 mm 5 mps 683 mmHg 92%
    16:00 +14°C° 0.4 mm 5 mps 683 mmHg 91%
    17:00 +14°C° 0.4 mm 4 mps 683 mmHg 90%
    18:00 +13°C° 0.4 mm 4 mps 683 mmHg 90%
    19:00 +12°C° 0.1 mm 4 mps 683 mmHg 90%
    20:00 +11°C° 0.1 mm 3 mps 684 mmHg 91%
    21:00 +10°C° 0.1 mm 3 mps 684 mmHg 92%
    22:00 +10°C° 0.1 mm 2 mps 684 mmHg 92%
    23:00 +10°C° 0.1 mm 2 mps 685 mmHg 92%

    22 September, Sunday

    Time Temperature Precipitation Wind Pressure Humidity
    00:00 +10°C° 0.1 mm 2 mps 685 mmHg 92%
    01:00 +9°C° 0 mm 2 mps 685 mmHg 93%
    02:00 +9°C° 0 mm 2 mps 685 mmHg 94%
    03:00 +8°C° 0 mm 2 mps 685 mmHg 95%
    04:00 +8°C° 0 mm 2 mps 686 mmHg 94%
    05:00 +8°C° 0 mm 1 mps 686 mmHg 93%
    06:00 +8°C° 0 mm 1 mps 686 mmHg 92%
    07:00 +9°C° 0 mm 2 mps 687 mmHg 85%
    08:00 +10°C° 0 mm 2 mps 687 mmHg 78%
    09:00 +13°C° 0 mm 2 mps 688 mmHg 71%
    10:00 +14°C° 0 mm 2 mps 688 mmHg 65%
    11:00 +14°C° 0 mm 3 mps 689 mmHg 59%
    12:00 +17°C° 0 mm 3 mps 689 mmHg 53%
    13:00 +17°C° 0 mm 3 mps 689 mmHg 52%
    14:00 +18°C° 0 mm 3 mps 689 mmHg 51%
    15:00 +18°C° 0 mm 3 mps 689 mmHg 50%
    16:00 +17°C° 0 mm 3 mps 689 mmHg 56%
    17:00 +16°C° 0 mm 3 mps 689 mmHg 61%
    18:00 +14°C° 0 mm 3 mps 689 mmHg 67%
    19:00 +14°C° 0 mm 2 mps 689 mmHg 73%
    20:00 +12°C° 0 mm 2 mps 689 mmHg 79%
    21:00 +11°C° 0 mm 1 mps 689 mmHg 84%
    22:00 +11°C° 0 mm 1 mps 689 mmHg 86%
    23:00 +11°C° 0 mm 1 mps 689 mmHg 87%

    23 September, Monday

    Time Temperature Precipitation Wind Pressure Humidity
    00:00 +10°C° 0 mm 1 mps 689 mmHg 88%
    01:00 +9°C° 0 mm 0 mps 689 mmHg 87%
    02:00 +9°C° 0 mm 0 mps 689 mmHg 85%
    03:00 +9°C° 0 mm 0 mps 689 mmHg 84%
    04:00 +9°C° 0 mm 0 mps 689 mmHg 82%
    05:00 +9°C° 0 mm 0 mps 689 mmHg 81%
    06:00 +8°C° 0 mm 0 mps 689 mmHg 79%
    07:00 +11°C° 0 mm 0 mps 690 mmHg 69%
    08:00 +13°C° 0 mm 0 mps 691 mmHg 60%
    09:00 +15°C° 0 mm 0 mps 691 mmHg 50%
    10:00 +19°C° 0 mm 1 mps 691 mmHg 45%
    11:00 +21°C° 0 mm 1 mps 692 mmHg 40%
    12:00 +23°C° 0 mm 2 mps 692 mmHg 35%
    13:00 +23°C° 0 mm 2 mps 692 mmHg 34%
    14:00 +24°C° 0 mm 2 mps 692 mmHg 33%
    15:00 +25°C° 0 mm 2 mps 691 mmHg 33%
    16:00 +23°C° 0 mm 2 mps 691 mmHg 38%
    17:00 +21°C° 0 mm 2 mps 691 mmHg 43%
    18:00 +19°C° 0 mm 2 mps 690 mmHg 48%
    19:00 +19°C° 0 mm 1 mps 690 mmHg 55%
    20:00 +16°C° 0 mm 1 mps 690 mmHg 61%
    21:00 +15°C° 0 mm 1 mps 690 mmHg 68%
    22:00 +14°C° 0 mm 1 mps 690 mmHg 69%
    23:00 +13°C° 0 mm 0 mps 690 mmHg 70%

    24 September, Tuesday

    Time Temperature Precipitation Wind Pressure Humidity
    00:00 +12°C° 0 mm 0 mps 689 mmHg 71%
    01:00 +12°C° 0 mm 0 mps 689 mmHg 71%
    02:00 +12°C° 0 mm 0 mps 689 mmHg 70%
    03:00 +12°C° 0 mm 0 mps 689 mmHg 70%
    04:00 +13°C° 0 mm 1 mps 689 mmHg 70%
    05:00 +13°C° 0 mm 1 mps 689 mmHg 70%
    06:00 +13°C° 0 mm 1 mps 688 mmHg 70%
    07:00 +15°C° 0 mm 1 mps 689 mmHg 62%
    08:00 +18°C° 0 mm 1 mps 690 mmHg 55%
    09:00 +19°C° 0 mm 2 mps 690 mmHg 47%
    10:00 +21°C° 0 mm 2 mps 690 mmHg 42%
    11:00 +22°C° 0 mm 3 mps 690 mmHg 38%
    12:00 +25°C° 0 mm 4 mps 691 mmHg 33%
    13:00 +25°C° 0 mm 4 mps 690 mmHg 32%
    14:00 +25°C° 0 mm 4 mps 690 mmHg 32%
    15:00 +26°C° 0 mm 4 mps 689 mmHg 31%
    16:00 +23°C° 0 mm 4 mps 689 mmHg 38%
    17:00 +21°C° 0 mm 3 mps 688 mmHg 45%
    18:00 +19°C° 0 mm 3 mps 688 mmHg 51%
    19:00 +18°C° 0 mm 2 mps 688 mmHg 61%
    20:00 +16°C° 0 mm 2 mps 687 mmHg 71%
    21:00 +14°C° 0 mm 2 mps 687 mmHg 81%
    22:00 +13°C° 0 mm 2 mps 687 mmHg 83%
    23:00 +13°C° 0 mm 2 mps 687 mmHg 86%
    Show more